TimePST,TemperatureF,Dew PointF,Humidity,Sea Level PressureIn,VisibilityMPH,Wind Direction,Wind SpeedMPH,Gust SpeedMPH,PrecipitationIn,Events,Conditions,WindDirDegrees,DateUTC
12:53 AM,32.0,21.0,64,30.23,10.0,NNW,6.9,-,N/A,,Clear,330,2013-01-14 08:53:00
1:53 AM,30.9,21.0,67,30.27,10.0,West,5.8,-,N/A,,Clear,280,2013-01-14 09:53:00
2:53 AM,30.0,19.9,66,30.27,10.0,NE,3.5,-,N/A,,Clear,40,2013-01-14 10:53:00
3:53 AM,30.9,19.0,61,30.28,10.0,NW,5.8,-,N/A,,Clear,320,2013-01-14 11:53:00
4:53 AM,28.0,19.0,69,30.29,10.0,Calm,Calm,-,N/A,,Clear,0,2013-01-14 12:53:00
5:53 AM,28.0,19.0,69,30.30,10.0,Calm,Calm,-,N/A,,Clear,0,2013-01-14 13:53:00
6:53 AM,30.0,18.0,61,30.33,10.0,Calm,Calm,-,N/A,,Clear,0,2013-01-14 14:53:00
7:53 AM,30.0,19.0,64,30.36,10.0,West,4.6,-,N/A,,Clear,270,2013-01-14 15:53:00
8:53 AM,37.0,19.0,48,30.38,10.0,ESE,3.5,-,N/A,,Clear,120,2013-01-14 16:53:00
10:53 AM,44.1,17.1,34,30.39,10.0,Calm,Calm,-,N/A,,Clear,0,2013-01-14 18:53:00
11:53 AM,46.9,19.0,33,30.36,10.0,East,5.8,-,N/A,,Clear,100,2013-01-14 19:53:00
12:53 PM,48.9,19.0,31,30.34,10.0,ESE,6.9,-,N/A,,Clear,120,2013-01-14 20:53:00
2:53 PM,51.1,19.0,28,30.35,10.0,ESE,3.5,-,N/A,,Clear,110,2013-01-14 22:53:00
3:53 PM,50.0,19.0,29,30.37,10.0,WSW,3.5,-,N/A,,Clear,240,2013-01-14 23:53:00
4:53 PM,46.0,25.0,44,30.37,10.0,WSW,4.6,-,N/A,,Clear,240,2013-01-15 00:53:00
5:53 PM,44.1,26.1,49,30.38,10.0,Calm,Calm,-,N/A,,Clear,0,2013-01-15 01:53:00
6:53 PM,39.9,28.0,63,30.38,10.0,NW,3.5,-,N/A,,Clear,310,2013-01-15 02:53:00
7:53 PM,37.9,27.0,65,30.39,10.0,NW,3.5,-,N/A,,Clear,310,2013-01-15 03:53:00
8:53 PM,36.0,27.0,70,30.39,10.0,NW,4.6,-,N/A,,Clear,320,2013-01-15 04:53:00
9:53 PM,36.0,26.1,67,30.39,10.0,NW,4.6,-,N/A,,Clear,320,2013-01-15 05:53:00
10:53 PM,35.1,26.1,70,30.40,10.0,NW,3.5,-,N/A,,Clear,310,2013-01-15 06:53:00
11:53 PM,34.0,26.1,73,30.42,10.0,WNW,5.8,-,N/A,,Clear,300,2013-01-15 07:53:00